Погода в Ниванкюле

Погода в Ниванкюле : погода сейчас, прогноз погоды и архив. Всё, что Вы хотите узнать о погоде в Ниванкюле!

Поиск расширенной информации на нашем сайте:

Другие новости

Новости СМИ2

Главная страница сайта

Новости сайта

03.07.2017

Напоминаем, что на нашем специализированном сайте Метеоцентр.Азия вы можете получить высокодетализированные автоматические прогнозы погоды по пунктам России, СНГ и мира в авиационном формате (включающие направление и скорость ветра, видимость, явления погоды, количество и форму облачности, нижнюю и верхнюю границу облачности).


Погода в Ниванкюле - сегодня

Время (UTC), дата Ветер
(°,м/с) 
Видим.   Явления Облачность Т
(°С)
Тd
(°С)
f(%) Тe
(°С)
Pmin
(гПа)
dP
(гПа)
Po
(мм)
O2
(г/м3)
Тmin Tmax R s Состояние
почвы
12 10.12.17 150 (ЮВ) 2-5  н/о    н/о 
-0.5 -2.9 84 -1  1005.6  0.4  746  301           
15 10.12.17 150 (ЮВ) 2-6  н/о    н/о 
+0 -3.4 78 -1  1005.4  -0.2  746  301           
21 10.12.17 040 (СВ) 2-5  н/о    н/о 
-1.5 -2.1 96 -2  1002.9  -2  744  302           
00 11.12.17 130 (ЮВ) 3-6  н/о    н/о 
-1.1 -2.1 93 -3  1000.8  -2  742  300           
09 11.12.17 260 (З) 1-3  н/о    н/о 
-1.2 -2.7 90 -1  1002.1  1.7  743  301           
12 11.12.17 230 (ЮЗ) 1-4  н/о    н/о 
-1.4 -2.7 91 -1  1003.3  1.2  744  302           
15 11.12.17 280 (З) 1-2  н/о    н/о 
-2 -3.7 88 -1  1004.7  1.3  745  303           
21 11.12.17 270 (З) 1-3  н/о    н/о 
-3.1 -4.6 89 -3  1007  747  305           
00 12.12.17 тихо ()   н/о    н/о 
-7.9 -8.7 94 -8  1007.7  0.5  747  311           
09 12.12.17 310 (СЗ) 1-2  н/о    н/о 
-7.2 -7.9 95 -7  1004.6  -2.1  745  309           
12 12.12.17 тихо ()   н/о    н/о 
-8.6 -9.5 93 -9  1003.1  -1.5  744  310           
15 12.12.17 тихо ()   н/о    н/о 
-8 -8.8 94 -8  1001.5  -1.6  742  309           
21 12.12.17 060 (СВ) 3-6  н/о    н/о 
-5.8 -6.4 96 -8  993.9  -4.7  737  304           
00 13.12.17 060 (СВ) 4-7  н/о    н/о 
-4.7 -5.4 95 -8  988.1  -5.6  733  301           
09 13.12.17 360 (С) 1-3  н/о    н/о 
-2 -2.5 96 -1  975.1  -4.1  723  294           
12 13.12.17 тихо ()   н/о    н/о 
-1.8 -2.3 96 -2  973.1  -2  722  293           
00 14.12.17 210 (ЮЗ) 2-6  н/о    н/о 
-4.9 -5.7 94 -6  976.3  0.3  724  298           
09 14.12.17 210 (ЮЗ) 3-8{10}  н/о    н/о 
-6.8 -8.2 90 -9  986.4  4.7  731  303           
12 14.12.17 240 (ЮЗ) 2-6  н/о    н/о 
-8.4 -10.3 86 -10  990.3  3.8  734  306           
15 14.12.17 250 (З) 2-6  н/о    н/о 
-8.2 -9.8 88 -10  992.9  2.5  736  307           
21 14.12.17 260 (З) 1-3  н/о    н/о 
-4.9 -6 92 -4  996.3  1.4  739  304           
00 15.12.17 250 (З) 2-4  н/о    н/о 
-2.2 -3.4 91 -3  997.1  0.9  739  301           
09 15.12.17 190 (Ю) 2-5  н/о    н/о 
-3.8 -5.8 86 -5  1001.9  743  304           
12 15.12.17 180 (Ю) 1-3  н/о    н/о 
-4.5 -6.7 85 -4  1002.4  0.5  743  305           
15 15.12.17 230 (ЮЗ) 1-3  н/о    н/о 
-5.3 -7.4 85 -5  1002.1  -0.4  743  306           
Время (UTC), дата Ветер
(°,м/с) 
Видим.   Явления Облачность Т
(°С)
Тd
(°С)
f(%) Тe
(°С)
Pmin
(гПа)
dP
(гПа)
Po
(мм)
O2
(г/м3)
Тmin Tmax R s Состояние
почвы

Для получения пояснительной информации подведите курсор к названию столбца.

ПОГОДА в Ниванкюле - архив

Всё, что Вы хотите узнать о погоде в Ниванкюле - удобно и подробно!

Выберите нужную дату (начиная с 1 января 2015* года) и нажмите кнопку "Найти".
Будут отображены архивные сводки погоды по пункту Ниванкюль, начиная с указанной даты.


Отображать данные в формате CSV (для использования в таблицах Excel)


Внимание! Наш архив погоды предназначен исключительно для личного некоммерческого использования в познавательных целях. Если Вам необходимы официальные справки о состоянии погоды (для производственных, юридических, коммерческих и т.п. целей), обращайтесь в органы Росгидромета.

*Примечание: данная дата относится к архиву по метеостанциям СССР (Россия, СНГ, Балтия).
Архив по метеостанциям Зарубежной Европы и Азии (кроме Китая) хранится 10 дней, по другим регионам земного шара (Китай, Африка, Америка, Австралия, Океания) - 1 день.

Ниванкюль - район местоположения метеостанции


Название, широта, долгота, высота метеостанции:
Ниванкюль 68.4°ш. 30.8°д. 91 м над ур. моря [Российская Федерация]

Дополнительная информация

В oтличие oт бoльшинства пoгoдных сайтoв мы публикуем пoдрoбную метеoинфoрмацию в детальнoм прoфессиoнальнoм фoрмате.

Характеристики температуры и влажнoсти вoздуха измеряются на высoте 2 м в тени вдали oт зданий и деревьев.
Скoрoсть ветра измеряется на высoте 10 м (на урoвне рoста челoвека скoрoсть ветра ниже в 1.5-2 раза). Если метеoстанция нахoдится в гoрoде или в лесу, тo скoрoсть ветра занижена на 2-4 м/с пo сравнению с oткрытым местoм. Скoрoсть ветра над акватoриями крупных рек и oзёр, а также на вершинах хoлмoв на 2-5 м/с выше, чем в oбычных услoвиях.
Атмoсфернoе давление в разных тoчках местнoсти мoжет значительнo oтличаться oт давления на метеoстанции, в зависимoсти oт услoвий рельефа (при пoдъёме на 10 м давление пoнижается примернo на 1 мм рт.ст.).